Theta_e
311 311 310 308 306 305 305 306 306 306 306 306 309 310 310 311 311 307 308 309 310 309 310 311 310 310 309 310 308 310 308 310 310 305 305 304 303 304 303 303 302 300 299 299 298 294 290 307 305 299 304 304 304 304
310 310 309 307 305 304 304 305 306 306 306 308 309 309 310 310 311 307 310 309 310 311 310 312 312 312 313 313 313 311 309 309 312 309 307 306 303 304 302 300 306 301 304 301 301 301 306 308 308 308 307 306 304 304
311 310 308 306 304 303 304 305 306 306 307 308 307 310 310 310 310 308 306 305 311 311 310 311 310 315 317 317 318 312 311 312 311 312 309 306 303 305 302 302 304 306 307 306 304 305 306 306 306 306 307 306 305 305
310 309 307 305 304 303 304 305 305 306 308 308 310 310 310 310 310 308 308 307 310 310 306 308 315 313 314 317 316 315 314 313 312 308 305 304 304 305 303 303 304 307 308 304 304 307 307 305 306 306 306 306 305 305
309 308 307 305 304 303 304 305 305 307 308 309 310 310 310 309 309 308 309 309 311 309 306 309 312 313 313 316 314 315 314 313 310 308 306 304 306 306 305 306 305 309 306 306 303 309 309 307 307 307 305 305 305 304
308 307 306 304 303 303 304 305 306 308 308 309 310 309 309 309 308 313 306 311 310 310 308 304 310 309 311 313 313 312 312 310 309 308 305 307 308 306 303 301 307 308 309 311 309 310 308 308 307 307 306 305 306 304
307 306 305 304 304 304 304 306 307 308 308 309 309 309 309 309 310 306 303 308 308 312 308 304 304 309 309 310 310 311 311 308 309 307 306 307 307 306 303 299 305 307 311 310 310 309 305 306 305 307 307 306 306 305
306 305 304 303 304 304 305 307 307 308 308 308 309 309 309 308 309 308 311 309 310 311 307 301 302 306 309 306 306 308 309 310 307 305 306 305 307 306 301 306 308 309 308 308 308 309 309 309 307 306 307 306 304 304
305 305 303 303 304 305 305 306 307 307 308 308 309 309 312 310 307 308 311 311 312 310 303 304 300 300 307 305 305 308 307 304 305 305 304 305 304 301 304 306 308 310 308 308 307 306 307 306 305 306 305 305 303 304
305 304 303 304 304 304 305 306 307 307 308 307 310 306 302 306 310 310 309 307 306 304 304 299 303 299 303 303 303 305 305 301 300 301 306 303 302 307 309 310 311 310 310 310 306 301 303 305 305 305 305 305 305 305
304 304 303 303 304 305 306 306 307 306 307 306 304 302 307 307 308 304 299 300 300 299 301 301 300 300 303 301 302 302 302 302 298 300 302 299 299 304 308 309 311 311 311 311 312 311 309 307 306 306 305 306 306 306
304 303 302 303 304 305 305 306 306 306 306 305 305 305 305 302 299 297 294 298 297 296 302 300 301 302 304 306 303 303 301 301 295 302 301 296 302 305 306 308 310 312 311 311 312 310 306 306 307 308 307 306 306 307
303 302 302 303 303 304 305 305 306 306 306 307 303 300 298 297 292 292 290 295 297 300 302 302 300 300 304 304 303 302 298 298 302 299 296 299 304 305 306 308 309 312 312 311 311 311 309 305 308 308 307 308 307 307
301 301 301 303 303 304 305 306 307 307 307 301 297 289 294 293 296 296 297 298 301 301 302 301 300 300 300 301 301 297 299 301 294 294 294 301 304 305 307 308 308 309 310 310 310 311 310 306 306 307 308 308 307 306
301 301 301 302 303 304 305 306 306 307 304 298 298 290 296 299 300 301 301 300 300 302 302 300 301 301 300 298 299 298 295 293 295 295 300 304 305 306 306 307 308 309 309 309 310 310 311 308 305 306 307 308 308 308
300 301 301 302 303 304 304 306 306 306 302 300 297 296 299 299 298 300 299 299 301 302 302 301 297 296 296 297 295 294 293 292 296 302 305 306 305 306 307 308 309 310 310 310 310 310 309 305 304 305 306 308 308 308
302 298 302 302 303 303 304 305 304 300 298 296 295 298 299 299 299 300 300 300 301 303 299 299 293 293 298 295 294 298 296 300 303 305 307 306 305 306 308 309 310 310 311 310 309 306 304 303 303 303 304 307 309 309
298 300 302 303 304 304 304 302 300 298 294 296 296 297 300 301 301 301 301 300 301 300 300 298 300 295 293 291 295 300 303 305 306 305 305 306 307 309 308 309 310 311 311 309 308 307 305 304 305 306 308 308 308 308
299 300 301 302 303 301 297 298 298 292 294 296 296 297 298 300 300 301 301 300 300 300 301 299 295 295 297 301 301 302 303 304 304 305 305 308 309 308 310 310 309 310 306 310 309 310 310 310 308 308 308 307 306 305
300 300 301 302 303 299 295 296 299 296 294 296 297 299 299 300 301 302 301 301 300 299 297 295 296 300 301 302 304 305 306 306 305 304 305 308 310 309 308 308 308 306 307 306 308 300 309 308 307 307 306 305 305 306
300 300 301 303 301 299 297 296 294 296 297 298 299 299 297 300 299 299 299 300 300 298 296 299 300 302 303 305 305 306 306 307 306 306 305 305 308 310 310 309 309 305 304 305 305 306 304 307 308 308 305 304 305 307
298 301 301 302 298 297 296 297 297 298 297 297 298 298 297 296 297 298 299 299 299 300 301 302 302 303 303 303 306 306 307 306 306 305 299 302 305 306 307 310 309 308 307 306 307 308 309 310 309 307 305 304 303 306
301 301 299 298 294 291 292 298 295 295 293 294 297 295 296 297 299 300 297 299 300 303 303 303 303 303 304 306 306 306 305 304 304 305 305 304 305 306 306 308 309 306 305 307 308 309 309 302 306 305 307 307 307 307
301 298 294 293 292 289 295 293 294 294 293 293 293 292 294 296 298 297 294 297 301 301 301 301 302 302 302 302 302 304 305 305 305 305 305 304 303 304 306 306 308 308 305 305 308 309 311 310 301 308 306 304 308 308
289 288 291 286 292 292 290 290 290 291 289 291 291 291 294 297 293 293 293 297 299 299 300 302 302 303 303 304 305 307 307 306 304 303 305 305 305 305 303 303 305 307 305 303 302 303 306 309 310 309 306 306 304 305
284 289 289 290 289 290 291 288 289 289 290 290 291 294 295 294 291 290 295 299 300 301 301 302 301 302 302 303 304 305 306 307 305 303 304 305 306 303 301 300 301 303 305 303 301 300 301 303 305 308 307 307 295 303
286 288 291 293 293 293 292 293 294 293 290 290 292 292 292 288 289 294 300 302 302 304 304 304 303 303 304 304 305 306 306 307 306 305 305 306 306 305 304 302 301 303 305 303 303 301 299 301 303 305 308 307 309 306
290 291 289 292 292 292 290 291 291 290 292 295 294 290 290 290 292 299 302 304 305 304 303 303 303 303 303 302 302 303 304 305 306 305 305 305 305 304 305 305 306 292 302 304 303 303 303 301 301 303 305 307 306 307
289 292 293 291 291 292 293 293 293 296 298 297 294 292 294 299 301 302 303 304 305 304 303 302 302 302 301 301 300 299 299 300 298 297 298 299 301 303 303 303 304 303 302 303 291 292 300 300 301 303 303 305 308 308
290 293 292 292 291 291 295 297 297 299 300 299 298 299 299 301 303 303 303 302 302 302 301 300 299 298 296 295 295 296 298 297 299 297 294 295 296 299 300 300 301 302 302 302 302 303 292 298 299 304 302 304 306 309
295 294 292 293 293 297 297 300 301 300 299 297 293 296 296 298 302 302 301 301 301 300 299 297 297 297 295 295 294 293 293 296 296 295 295 295 295 296 297 299 300 301 301 301 300 299 301 301 301 301 301 301 300 300
294 293 292 290 294 298 299 298 297 297 296 295 296 297 297 297 296 301 300 299 298 297 292 295 296 296 296 296 296 296 288 294 293 293 293 293 293 294 295 296 297 298 300 298 299 298 298 300 299 299 299 299 299 299
295 295 295 294 294 294 297 297 295 294 295 294 294 295 296 296 294 300 301 300 299 299 298 298 298 297 297 296 295 294 291 295 292 287 287 287 286 289 293 295 296 296 296 296 295 296 296 297 298 298 298 298 298 299
Wind_Speed
10 10 8 6 5 7 8 9 11 13 15 17 18 18 18 17 17 6 2 5 3 2 3 5 4 4 2 3 3 3 3 1 2 3 0 2 1 2 2 2 1 1 1 1 1 1 1 3 2 3 4 3 3 4
10 9 9 7 5 5 7 8 10 13 14 16 17 16 17 17 16 7 2 3 3 1 2 3 2 2 3 2 1 2 2 1 1 2 1 1 2 1 1 3 2 1 2 2 3 2 3 3 3 4 3 5 4 6
11 11 9 7 5 4 6 8 10 13 14 16 15 14 14 14 14 8 2 4 2 2 2 1 4 5 1 4 2 2 1 1 2 2 2 2 3 1 2 2 2 2 1 0 2 2 0 3 4 3 3 8 7 8
12 11 9 7 4 4 6 8 10 12 13 14 13 12 12 12 13 7 3 4 1 1 2 2 4 2 4 2 5 3 5 4 3 0 2 2 2 2 2 2 2 2 3 2 1 2 2 4 3 6 8 9 10 7
12 11 9 7 4 3 7 8 10 11 12 13 12 11 11 11 10 2 2 4 3 3 2 1 4 5 4 2 7 6 4 2 1 1 2 3 2 1 1 1 1 2 2 1 3 3 3 2 8 9 10 10 8 7
12 11 9 6 3 3 6 9 10 11 11 12 11 10 10 10 8 1 1 2 4 3 1 2 2 3 5 5 7 6 4 3 2 2 3 2 2 1 2 2 5 2 2 3 3 4 5 8 8 8 11 10 7 6
13 11 9 6 2 4 7 9 11 11 11 11 10 9 10 10 3 3 3 4 6 2 1 1 2 3 4 2 2 2 3 3 3 2 2 1 2 3 2 4 15 10 5 2 7 9 6 6 5 9 10 8 7 6
12 10 8 5 1 5 7 9 11 12 11 11 10 8 8 3 2 2 2 4 3 1 2 1 1 0 5 3 1 3 2 1 5 2 1 3 2 3 3 11 13 10 5 2 7 2 1 9 11 10 9 9 8 6
12 11 8 3 3 6 8 10 12 13 12 11 7 1 1 3 2 3 10 2 1 3 2 2 3 2 4 2 2 1 2 3 1 2 3 1 3 7 9 14 14 12 8 4 2 2 8 10 12 12 11 9 7 7
12 9 6 3 4 6 9 11 13 13 9 5 3 2 2 2 10 6 1 1 3 4 3 3 1 2 4 3 2 1 2 2 2 3 1 4 4 2 8 12 12 13 11 7 7 5 6 8 12 14 13 10 8 8
11 8 5 3 4 7 9 12 14 8 3 3 3 1 3 9 1 3 2 3 3 3 3 3 2 3 3 3 3 3 2 1 1 3 1 2 3 7 13 13 13 15 13 8 9 4 7 8 12 12 11 10 8 8
10 7 5 4 5 7 9 11 14 3 2 2 1 1 3 3 2 3 3 1 3 3 3 3 3 3 2 2 2 2 2 1 3 2 2 3 4 10 14 16 16 14 15 11 7 8 4 6 10 13 11 10 10 9
9 7 5 5 6 8 9 10 9 1 4 2 1 3 3 3 8 4 3 2 2 5 5 4 1 2 1 1 2 2 3 3 1 3 3 3 6 10 12 13 15 13 13 13 9 7 8 8 9 10 11 10 10 9
8 6 5 6 7 8 10 10 7 1 1 3 4 6 4 3 4 3 3 3 3 3 5 3 2 3 2 2 2 2 3 1 2 2 3 4 9 12 11 11 12 15 14 15 12 9 10 8 9 10 9 9 10 10
6 5 3 7 8 10 11 10 6 2 2 3 2 4 4 2 2 2 1 1 4 4 3 1 0 2 3 2 3 1 1 3 3 3 3 6 10 11 11 11 12 12 12 13 13 9 7 6 5 3 6 9 10 10
5 5 4 8 9 10 10 5 3 1 3 2 3 3 1 2 3 3 4 4 4 4 2 1 2 2 3 2 1 3 0 3 2 3 4 7 10 10 11 12 11 10 10 10 7 6 3 1 2 3 6 7 9 10
7 2 7 8 9 7 8 2 3 5 3 3 3 2 2 3 3 2 3 4 5 3 3 2 3 3 2 0 2 3 3 2 3 5 5 7 9 10 12 12 11 10 7 5 4 5 3 2 3 3 5 7 8 7
3 2 7 8 4 3 2 4 3 3 4 2 2 2 1 1 2 2 2 3 3 2 2 3 1 1 2 2 2 1 0 2 3 4 5 6 6 8 8 8 10 10 5 3 0 1 1 1 2 5 6 6 6 5
3 1 6 8 3 2 3 3 3 3 2 1 1 1 1 2 1 1 1 2 2 1 1 0 0 1 1 1 1 1 1 2 3 5 4 4 4 5 8 8 8 10 8 6 4 4 3 5 5 3 5 7 4 4
5 7 8 5 3 2 3 2 1 2 1 2 0 1 1 2 1 0 1 2 2 1 1 1 1 1 1 0 2 2 2 2 3 3 2 2 3 5 6 7 6 10 9 5 3 2 1 2 4 4 4 5 5 6
3 4 5 3 2 4 3 1 2 1 1 1 1 0 1 0 0 1 1 1 1 1 2 2 2 1 3 2 2 2 3 3 2 3 3 4 5 4 4 4 5 4 6 6 6 5 3 3 2 3 4 5 5 4
1 4 1 3 3 3 3 2 2 1 0 1 1 0 1 1 0 0 1 2 2 2 2 1 1 2 2 4 3 5 4 4 4 4 4 4 4 5 6 6 7 6 4 4 6 5 4 4 3 2 4 4 4 5
2 2 2 3 3 4 1 1 1 0 2 2 1 2 1 1 1 1 2 2 2 1 1 2 3 3 3 1 2 2 2 3 2 2 3 4 4 4 4 5 5 6 6 5 5 5 6 6 5 3 4 5 5 5
1 2 3 2 2 2 1 1 0 1 1 2 1 1 1 0 1 0 2 2 1 2 2 3 2 2 2 2 1 1 1 1 2 2 2 3 4 4 4 4 4 4 6 5 5 5 6 4 4 6 5 6 7 6
3 4 2 3 1 1 2 2 1 1 1 2 2 1 1 1 1 1 2 1 2 2 1 1 0 1 1 1 1 1 1 3 3 4 2 3 4 4 4 4 3 3 5 6 7 7 7 7 7 5 4 6 7 8
4 0 1 2 3 2 2 3 2 2 2 2 1 1 1 1 2 2 1 2 2 2 3 3 3 2 2 2 3 3 3 3 3 4 4 3 4 4 5 5 6 4 4 5 6 8 9 8 9 10 5 7 7 7
3 1 1 1 1 1 2 1 1 1 2 2 2 2 1 1 2 0 0 1 1 1 2 2 2 2 2 3 3 3 4 3 5 5 6 5 4 4 4 5 6 5 5 6 6 7 9 10 11 11 10 6 8 6
0 1 2 3 2 0 2 2 2 3 2 2 2 2 1 2 1 0 1 1 2 1 2 3 3 3 3 3 4 5 4 6 5 5 5 6 5 4 5 5 4 4 5 5 6 6 8 10 11 11 12 9 5 3
2 2 2 1 2 2 2 2 2 2 2 2 1 1 1 1 1 1 1 1 0 1 0 0 3 2 2 1 3 4 5 5 8 10 11 8 6 1 5 6 6 6 5 5 4 4 6 7 9 10 10 9 8 6
1 3 1 2 2 2 0 2 1 2 1 1 0 0 1 1 1 1 2 2 2 1 2 2 2 3 3 4 6 7 5 5 4 4 6 8 7 9 9 9 8 8 6 6 7 6 5 6 7 8 8 7 7 8
1 3 2 1 0 1 1 2 1 1 1 1 2 0 1 2 2 1 0 1 2 2 2 2 2 1 3 4 5 8 8 4 6 10 9 8 9 9 9 10 10 9 7 8 7 7 6 7 7 9 10 11 11 12
2 3 1 2 1 1 1 1 1 0 0 1 1 2 2 2 3 2 3 4 4 4 3 3 3 3 2 4 5 6 6 7 7 7 9 8 9 10 10 9 9 9 10 7 7 7 7 7 7 8 9 11 11 10
1 1 1 1 1 1 1 1 1 2 2 2 2 2 2 2 3 1 2 3 4 3 3 2 2 3 5 7 7 7 5 6 8 6 8 8 9 9 9 8 8 8 10 7 5 7 8 8 7 9 11 12 12 12
Wind_Direction
153 142 138 118 84 49 29 20 8 2 2 3 3 5 4 2 3 6 31 5 343 65 49 15 20 67 77 29 22 22 237 97 59 74 4 104 104 82 117 67 50 59 96 69 151 291 6 21 216 332 72 117 107 90
150 149 134 122 100 53 29 15 2 356 355 358 360 359 3 358 359 2 33 21 330 336 39 309 321 335 8 3 128 45 32 49 59 101 129 147 131 126 15 113 72 146 355 360 251 21 22 359 33 95 103 116 106 110
149 145 139 140 114 57 28 10 359 349 352 357 353 354 359 356 358 16 2 339 278 24 92 83 21 2 25 25 302 330 172 132 137 349 103 81 88 261 94 93 120 95 166 31 249 124 210 111 114 101 98 99 107 112
147 147 147 142 115 47 19 5 349 339 349 352 343 353 355 356 357 6 37 351 350 36 91 83 334 52 351 38 55 37 112 102 92 282 76 78 80 312 71 61 350 28 181 103 291 214 205 176 177 128 109 113 114 103
150 144 143 138 117 37 11 348 336 333 338 342 344 354 356 353 358 63 57 39 27 338 66 61 309 21 360 46 64 61 82 98 70 107 46 64 84 188 62 223 77 184 143 265 43 6 5 79 155 141 134 129 129 124
143 140 141 140 109 22 350 333 331 331 329 334 343 350 347 350 348 234 102 87 13 326 312 121 2 350 356 29 51 43 46 59 48 35 68 88 51 304 75 47 27 339 256 276 11 101 55 113 124 146 135 141 143 135
142 141 139 133 94 358 334 331 326 322 319 323 328 337 337 343 2 44 55 335 331 279 354 100 63 24 338 4 48 25 40 59 22 82 57 48 57 3 50 41 338 327 312 155 138 126 101 168 157 155 143 145 131 119
138 137 138 133 52 335 333 326 318 313 315 312 310 330 347 358 168 87 46 338 292 81 32 51 71 86 11 22 58 352 34 50 30 54 106 33 78 357 70 349 336 338 341 206 169 324 121 129 141 147 147 151 155 146
139 137 133 113 4 341 330 321 312 308 310 305 315 25 103 31 27 354 329 99 2 14 75 23 6 50 355 30 300 136 346 76 331 57 54 350 20 44 338 332 336 330 287 314 224 102 142 149 158 163 167 172 173 159
131 127 120 71 355 334 328 321 315 313 308 321 32 33 37 12 314 303 167 7 28 6 29 57 320 1 327 347 57 313 19 50 72 47 320 69 97 343 346 342 338 330 306 217 179 161 169 173 173 175 187 186 186 175
125 125 109 53 352 339 332 330 330 324 27 32 35 49 319 312 301 28 48 34 338 67 11 9 339 337 32 355 14 10 39 13 97 70 336 87 62 5 349 344 346 353 354 243 231 271 204 176 178 185 190 192 185 178
123 118 90 47 360 345 340 343 344 35 42 66 13 286 277 24 42 65 29 1 27 40 357 332 358 338 339 310 299 33 43 273 80 331 78 89 37 353 349 349 354 357 357 347 270 259 177 182 196 184 190 191 192 191
121 106 73 39 0 345 339 344 355 71 128 149 65 50 2 341 47 36 32 40 36 354 6 341 17 341 260 357 73 346 38 51 227 44 70 65 1 351 347 342 342 346 355 355 330 264 198 198 194 199 184 191 185 192
115 92 58 34 1 342 337 336 353 218 308 54 34 30 31 40 64 32 29 5 359 307 333 317 308 8 359 8 356 18 37 272 84 94 80 34 353 336 332 332 330 329 340 340 327 301 227 184 183 178 197 189 186 191
106 75 79 16 353 337 333 340 359 25 63 67 39 56 61 71 79 28 335 336 1 309 312 266 185 321 26 38 20 328 59 74 34 67 12 352 330 327 328 326 322 318 321 326 325 304 262 183 146 176 197 192 191 185
84 89 30 344 341 333 336 342 14 59 64 56 61 104 96 124 73 53 17 15 7 329 265 327 9 41 55 342 26 52 4 60 57 345 328 322 329 329 326 324 317 316 320 325 331 333 359 11 171 207 188 174 177 179
73 56 334 341 335 332 359 44 18 45 62 65 75 39 67 78 74 55 6 356 332 327 26 338 1 26 303 264 86 12 50 31 332 318 316 324 322 322 325 325 328 319 322 357 1 31 34 30 116 132 155 154 162 173
71 335 336 348 349 354 34 28 65 57 66 51 100 80 64 58 102 79 39 357 357 37 351 32 305 340 26 8 79 96 291 304 280 294 315 331 338 349 347 345 349 337 315 296 321 304 273 287 237 209 166 162 155 167
137 38 350 3 22 73 56 43 18 82 56 36 68 65 17 86 71 80 65 40 45 32 148 184 262 44 67 191 276 276 261 266 316 329 315 329 342 332 338 342 350 0 334 325 316 283 271 264 264 220 176 171 176 170
99 44 8 3 355 81 82 57 16 80 95 51 163 113 56 59 70 56 39 25 12 343 252 221 219 159 187 123 216 253 261 274 289 322 353 345 348 1 350 349 357 358 343 334 326 297 219 195 211 189 187 194 177 196
43 349 350 9 52 51 76 108 77 61 85 81 66 328 85 253 65 10 359 13 270 249 249 222 238 239 226 252 244 241 253 234 230 254 310 317 341 315 325 349 335 351 1 330 350 14 9 347 347 205 198 201 209 218
348 337 29 13 66 48 73 19 68 97 204 95 133 30 101 162 294 96 108 224 244 250 227 226 237 293 232 223 221 221 263 285 288 287 292 289 318 336 337 329 323 324 333 342 335 342 23 15 344 236 218 235 230 218
32 25 43 33 84 53 65 338 73 56 163 128 175 161 178 190 108 192 254 255 281 282 281 255 265 259 256 275 253 269 319 293 286 326 328 331 321 321 323 338 350 350 340 327 318 317 321 338 9 331 276 243 222 230
53 53 57 61 72 88 340 86 31 138 165 173 165 151 178 173 129 187 266 256 252 302 265 278 232 212 220 222 349 8 76 296 291 279 299 312 325 350 336 333 335 351 353 323 337 321 295 313 331 322 311 270 251 228
77 0 62 28 78 110 142 170 155 151 223 200 160 140 126 177 191 228 259 274 336 345 359 346 290 336 360 29 20 338 294 287 302 305 291 266 303 308 333 354 6 357 353 348 351 342 335 327 301 279 283 279 257 252
80 157 107 163 132 184 179 149 184 170 241 203 178 95 152 165 238 241 235 344 342 354 7 1 355 350 22 10 339 340 358 334 276 273 285 256 268 289 319 331 342 3 6 345 338 334 330 329 317 312 270 271 259 262
84 92 170 278 304 168 149 103 107 196 226 230 154 152 171 228 253 65 217 194 269 356 312 307 305 340 355 346 339 327 310 286 253 294 308 287 264 262 277 308 323 337 330 325 326 331 325 327 327 320 314 309 296 282
331 261 155 166 201 216 129 144 169 205 196 194 179 172 193 203 252 27 306 47 333 354 60 55 44 34 48 38 10 355 358 341 303 276 276 269 250 252 275 279 284 302 284 297 312 315 324 325 324 320 313 301 297 340
211 189 204 147 147 180 217 195 190 190 161 185 181 202 234 207 308 291 19 340 315 230 219 188 54 19 37 8 14 359 350 347 342 325 320 312 313 4 5 330 309 305 307 303 265 254 304 309 310 308 303 300 290 274
227 178 194 193 208 210 109 193 166 130 148 99 84 157 232 232 252 268 252 227 228 182 98 84 53 20 5 344 329 329 336 328 302 317 306 303 310 319 314 314 315 305 290 295 303 320 331 320 326 330 335 331 318 294
151 183 220 197 303 51 36 113 100 91 94 95 25 319 289 314 269 185 169 116 135 151 199 226 226 267 306 323 325 321 321 339 329 317 307 301 301 303 306 310 307 304 295 287 291 297 313 325 331 329 329 335 343 337
191 207 217 196 126 91 173 114 81 284 173 226 211 207 210 238 262 200 179 189 206 228 231 240 269 311 313 312 304 300 281 296 306 306 311 308 304 304 304 304 301 302 295 284 284 286 288 299 312 323 326 330 330 331
114 115 94 112 110 179 164 203 223 253 220 241 226 214 220 252 263 128 162 222 253 282 262 246 267 286 297 306 316 312 289 286 292 283 277 275 275 283 295 292 295 306 300 285 279 283 284 288 300 316 320 324 323 323